Location: Be Tobo
(6.6442°N, 10.6239°W)
Time: 03:19:38
(UTC+00:00)

Ariane H10+ - Pass Details

Date: 18 September 2020
Orbit: 637 x 36752 km, 4.7° (Epoch: 23 October)

Event Time Altitude Azimuth Distance (km) Brightness Sun altitude
Rises 20:23:51 0° 261° (W) 8,773 9.1 -26.5°
Reaches altitude 10° 20:33:06 10° 252° (WSW) 4,908 7.4 -28.8°
Maximum altitude 20:41:18 28° 194° (SSW) 1,685 4.2 -30.8°
Enters shadow 20:41:29 28° 190° (S) 1,656 4.2 -30.8°
